User: anonymous   Login
Location: Kelshall
(52.0000°N, 0.0500°W)
Time: 00:20:16
(UTC+00:00)
Language:

Lacrosse 5 rocket - Orbit

View from above orbital plane
View from above orbital plane
View from above satellite
View from above satellite

Ground track
Ground track

The orbit data is extracted from the following two-line orbital elements,

1 28647U 05016B   20328.39135316  .00000541  00000-0  48705-4 0  9993
2 28647  56.9967 314.0539 0129511  70.9910 290.5108 15.06132871 83900
Epoch (UTC): 23 November 2020 09:23:32
Eccentricity: 0.0129511
inclination: 56.9967°
perigee height: 458 km
apogee height: 638 km
right ascension of ascending node: 314.0539°
argument of perigee: 70.9910°
revolutions per day: 15.06132871
mean anomaly at epoch: 290.5108°
orbit number at epoch: 8390

The dashed part of the orbit path shows where the satellite is in the earth's shadow,  

DLR